Augusta, GA

11:17 AM EST on January 18, 2018 (GMT -0500)
Daniel

Weather History for KDNL - November, 2012

Change the Weather History Date:

Sunday, November 18, 2012

  Actual Average Record
Temperature  
Mean Temperature 55 °F -  
Max Temperature 62 °F 63 °F 85 °F (2013)
Min Temperature 48 °F 45 °F 28 °F (1997)
Degree Days  
Heating Degree Days 10    
Month to date heating degree days 179  
Growing Degree Days 4 (Base 50)    
Moisture  
Dew Point 39 °F    
Average Humidity 57    
Maximum Humidity 62    
Minimum Humidity 41    
Precipitation  
Precipitation 0.00 in - - ()
Month to date precipitation 0.75  
Year to date precipitation 40.10  
Sea Level Pressure  
Sea Level Pressure 30.33 in    
Wind  
Wind Speed 9 mph (NNE)    
Max Wind Speed 16 mph    
Max Gust Speed 22 mph    
Visibility 10 miles    
Events      
Averages and records for this station are not official NWS values.
T = Trace of Precipitation, MM = Missing Value Source: NWS Daily Summary

Daily Weather History Graph

Daily Weather History Graph

Search for Another Location

Airport or City:

Trip Planner

Search our weather history database for the weather conditions in past years. The results will help you decide how hot, cold, wet, or windy it might be!

Date:

Astronomy

Nov. 18, 2012 Rise Set
Actual Time 7:02 AM EST 5:23 PM EST
Civil Twilight 6:36 AM EST 5:50 PM EST
Nautical Twilight 6:06 AM EST 6:20 PM EST
Astronomical Twilight 5:36 AM EST 6:50 PM EST
Moon 11:31 AM EST 10:37 PM EST
Length of Visible Light 11h 14m
Length of Day
10h 20m
Waxing Crescent, 30% of the Moon is Illuminated
Nov 18
Waxing Crescent
Nov 20
First Quarter
Nov 28
Full
Dec 6
Last Quarter
Dec 13
New

Hourly Weather History & Observations

Time (EST) Temp. Dew Point Humidity Pressure Visibility Wind Dir Wind Speed Gust Speed Precip Events Conditions
12:30 AM 53.6 °F 30.2 °F 41% 30.37 in 10.0 mi NNE 10.4 mph - N/A   Overcast
12:53 AM 52.0 °F 30.0 °F 43% 30.36 in 10.0 mi NNE 9.2 mph - N/A   Overcast
2:27 AM 51.8 °F 30.2 °F 44% 30.33 in 10.0 mi NNE 9.2 mph - N/A   Scattered Clouds
2:51 AM 51.8 °F 32.0 °F 47% 30.34 in 10.0 mi NNE 8.1 mph - N/A   Mostly Cloudy
2:53 AM 51.1 °F 32.0 °F 48% 30.34 in 10.0 mi NNE 9.2 mph - N/A   Mostly Cloudy
3:53 AM 51.1 °F 34.0 °F 52% 30.34 in 10.0 mi NNE 9.2 mph - N/A   Overcast
4:53 AM 51.1 °F 35.1 °F 54% 30.35 in 10.0 mi NNE 10.4 mph - N/A   Overcast
5:45 AM 50.0 °F 35.6 °F 58% 30.36 in 10.0 mi North 10.4 mph - N/A   Overcast
5:53 AM 50.0 °F 36.0 °F 59% 30.36 in 10.0 mi North 9.2 mph - N/A   Overcast
6:50 AM 50.0 °F 35.6 °F 58% 30.36 in 10.0 mi NNE 9.2 mph - N/A   Overcast
6:53 AM 50.0 °F 36.0 °F 59% 30.36 in 10.0 mi NNE 9.2 mph - N/A   Overcast
7:23 AM 48.2 °F 35.6 °F 62% 30.36 in 10.0 mi North 9.2 mph 17.3 mph N/A   Overcast
7:43 AM 48.2 °F 35.6 °F 62% 30.37 in 10.0 mi North 11.5 mph - N/A   Overcast
7:53 AM 48.9 °F 36.0 °F 61% 30.38 in 10.0 mi North 10.4 mph 17.3 mph N/A   Overcast
8:53 AM 48.9 °F 36.0 °F 61% 30.39 in 10.0 mi North 15.0 mph 19.6 mph N/A   Overcast
9:53 AM 51.1 °F 37.9 °F 61% 30.38 in 10.0 mi North 8.1 mph - N/A   Overcast
10:53 AM 53.1 °F 39.0 °F 59% 30.38 in 10.0 mi NNE 11.5 mph - N/A   Overcast
11:44 AM 55.4 °F 41.0 °F 58% 30.35 in 10.0 mi North 10.4 mph - N/A   Scattered Clouds
11:53 AM 55.9 °F 41.0 °F 57% 30.35 in 10.0 mi NE 10.4 mph 19.6 mph N/A   Mostly Cloudy
12:28 PM 57.2 °F 42.8 °F 59% 30.33 in 10.0 mi NNE 12.7 mph - N/A   Mostly Cloudy
12:46 PM 57.2 °F 42.8 °F 59% 30.32 in 10.0 mi NE 10.4 mph - N/A   Mostly Cloudy
12:53 PM 57.9 °F 42.1 °F 56% 30.32 in 10.0 mi NNE 11.5 mph - N/A   Overcast
1:24 PM 57.2 °F 42.8 °F 59% 30.31 in 10.0 mi NNE 9.2 mph - N/A   Scattered Clouds
1:53 PM 60.1 °F 43.0 °F 53% 30.30 in 10.0 mi North 9.2 mph - N/A   Mostly Cloudy
2:53 PM 60.1 °F 44.1 °F 55% 30.29 in 10.0 mi North 9.2 mph - N/A   Partly Cloudy
3:53 PM 61.0 °F 44.1 °F 54% 30.29 in 10.0 mi NNE 9.2 mph 17.3 mph N/A   Clear
4:53 PM 60.1 °F 44.1 °F 55% 30.28 in 10.0 mi North 5.8 mph - N/A   Clear
5:53 PM 59.0 °F 44.1 °F 58% 30.28 in 10.0 mi North 9.2 mph - N/A   Overcast
6:53 PM 59.0 °F 44.1 °F 58% 30.30 in 10.0 mi North 11.5 mph - N/A   Overcast
7:50 PM 57.2 °F 44.6 °F 63% 30.30 in 10.0 mi NNE 10.4 mph 20.7 mph N/A   Overcast
7:53 PM 57.9 °F 44.1 °F 60% 30.30 in 10.0 mi North 5.8 mph 20.7 mph N/A   Overcast
8:29 PM 57.2 °F 42.8 °F 59% 30.31 in 10.0 mi North 10.4 mph - N/A   Overcast
8:53 PM 57.0 °F 43.0 °F 59% 30.31 in 10.0 mi North 8.1 mph - N/A   Overcast
9:09 PM 57.2 °F 42.8 °F 59% 30.31 in 10.0 mi North 9.2 mph - N/A   Overcast
9:53 PM 55.9 °F 42.1 °F 60% 30.31 in 10.0 mi North 6.9 mph - N/A   Overcast
10:42 PM 55.4 °F 42.8 °F 63% 30.30 in 10.0 mi North 9.2 mph - N/A   Scattered Clouds
10:53 PM 55.0 °F 42.1 °F 62% 30.30 in 10.0 mi North 6.9 mph - N/A   Mostly Cloudy
11:53 PM 55.0 °F 42.1 °F 62% 30.29 in 10.0 mi North 11.5 mph 17.3 mph N/A   Overcast